Regional Weather Roundup
Issued by NWS

Home | Current Version | Previous Version | Graphics & Text | Print | Product List | Glossary On
Versions: 1 2 3 4 5 6 7 8 9 10 11 12 13 14 15 16 17 18 19 20 21 22 23 24 25 26 27 28 29 30 31 32 33 34 35 36 37 38 39 40 41 42 43 44 45 46 47 48 49 50
000
ASUS43 KMPX 251110
RWRMN
WEATHER ROUNDUP FOR MINNESOTA
NATIONAL WEATHER SERVICE TWIN CITIES/CHANHASSEN MN
600 AM CDT FRI JUL 25 2014


NOTE: "FAIR" INDICATES FEW OR NO CLOUDS BELOW 12,000 FEET WITH NO
SIGNIFICANT WEATHER AND/OR OBSTRUCTIONS TO VISIBILITY. N/A MEANS
CURRENT SKY AND/OR WEATHER CONDITIONS ARE NOT AVAILABLE.

MNZ060>063-068>070-251200-
   Twin Cities Metro

CITY           SKY/WX    TMP DP  RH WIND       PRES   REMARKS
TWIN CITIES    TSTM      64  63  96 SE14      29.82F FOG
ST PAUL        RAIN      64  62  93 SE14      29.83F FOG
CRYSTAL        RAIN      65  61  87 SE16      29.79F
BLAINE         RAIN      66  64  94 S21G28    29.81F
LAKEVILLE      TSTM      63  61  94 SE13      29.82F
EDEN PRAIRIE   LGT RAIN  64  62  93 SE16G23   29.82F
SOUTH ST PAUL  CLOUDY    64  62  92 SE13      29.85F
LAKE ELMO      TSTM      64  61  88 S12       29.87F
$$
MNZ001>005-007-008-013>017-022>024-027-028-251200-
   Northwest Minnesota

CITY           SKY/WX    TMP DP  RH WIND       PRES   REMARKS
BEMIDJI        CLOUDY    65  61  87 S6        29.78F
HALLOCK        CLOUDY    64  63  94 SE14      29.65F
ROSEAU         CLEAR     61  55  82 CALM      29.75S
WARROAD        CLEAR     63  57  82 SE7       29.75S
THIEF RVR FALL CLOUDY    64  61  88 S7        29.73F
CROOKSTON      MOCLDY    66  61  82 SW7       29.75R
FOSSTON        MOCLDY    63  57  82 S7        29.74F
DETROIT LAKES  MOCLDY    64  61  88 S7        29.77R
MOORHEAD       MOCLDY    66  66 100 SE3       29.76S
PARK RAPIDS    CLOUDY    63  60  90 E7        29.76F
$$
MNZ006-009>011-018-025>026-251200-
   North Central Minnesota

CITY           SKY/WX    TMP DP  RH WIND       PRES   REMARKS
BAUDETTE       PTCLDY    61  58  90 SE6       29.77F
FLAG ISLAND    CLEAR     66  61  82 SE5       29.75F
INTL FALLS     PTCLDY    58  57  97 SE6       29.80F
WASKISH        PTCLDY    61  57  88 CALM      29.78F
BIG FORK       CLOUDY    61  57  88 SE1       29.82S
LONGVILLE      DRIZZLE   63  61  94 SE8       29.77F
GRAND RAPIDS   CLOUDY    64  61  88 CALM      29.82F
CRANE LAKE     CLOUDY    55  55 100 CALM      29.84F FOG
ORR            MOCLDY    59  55  88 CALM      29.81S
COOK           CLOUDY    61  57  88 CALM      29.84S
$$
MNZ012-019>021-037-251200-
   Northeast Minnesota

CITY           SKY/WX    TMP DP  RH WIND       PRES   REMARKS
DULUTH         CLOUDY    62  56  80 SE8       29.84F
ELY            LGT RAIN  61  57  88 S5        29.85S
HIBBING        CLOUDY    62  58  86 CALM      29.85R
EVELETH        CLOUDY    59  57  94 CALM      29.85S
DULUTH HARBOR  CLOUDY    59  55  88 NE7       29.84F
TWO HARBORS    CLOUDY    59  54  82 CALM      29.83F
SILVER BAY     CLOUDY    57  57 100 CALM      29.85S
GRAND MARAIS     N/A     52  49  89 CALM      29.85F
G MARAIS ARPRT PTCLDY    50  46  87 N3        29.88F
$$
MNZ029>031-032-039>041-046>048-054>057-064-251200-
   West Central Minnesota

CITY           SKY/WX    TMP DP  RH WIND       PRES   REMARKS
FERGUS FALLS   CLOUDY    64  61  88 SE7       29.77R
WHEATON        CLOUDY    63  61  94 E9        29.74R
MORRIS         CLOUDY    64  63  94 E10       29.74R
ALEXANDRIA     CLOUDY    63  62  97 S8        29.79R
ELBOW LAKE     MOCLDY    63  62  96 SE6       29.76F
WADENA         CLOUDY    61  57  88 E3        29.76F
GLENWOOD       CLOUDY    64  63  94 SW15      29.76F
APPLETON       CLOUDY    64  63  94 SE9       29.70F
BENSON         CLOUDY    64  63  94 S9        29.75F
ORTONVILLE     CLOUDY    64  61  88 S8        29.71S
MADISON        CLOUDY    68  64  88 S12       29.74R
WILLMAR        FAIR      64  63  94 E8        29.79R
$$
MNZ033>034-036-042>043-049>051-058-059-251200-
   Central Minnesota

CITY           SKY/WX    TMP DP  RH WIND       PRES   REMARKS
ST CLOUD       RAIN      65  61  87 SE14G20   29.72F
SAUK CENTRE    PTSUNNY   62  61  96 S20G25    29.77R
PAYNESVILLE    RAIN      62  62 100 S10       29.80R
AITKIN         RAIN      66  61  82 CALM      29.84R
PINE RIVER     CLOUDY    63  61  94 SE13      29.80F
BRAINERD       CLOUDY    62  60  93 VRB3      29.80F
STAPLES        CLOUDY    63  59  88 E3        29.77F
LONG PRAIRIE   MOCLDY    61  61 100 W9G20     29.83R
LITTLE FALLS   CLOUDY    63  59  88 N9G16     29.77
LITCHFIELD     CLOUDY    64  64 100 SE9       29.81F
BUFFALO        RAIN      64  61  89 SE8       29.83F
MAPLE LAKE     RAIN      65  63  95 SE9       29.80F
$$
MNZ037-044-045-052-053-251200-
   East Central Minnesota

CITY           SKY/WX    TMP DP  RH WIND       PRES   REMARKS
PRINCETON      LGT RAIN  64  63  94 SE9       29.79F
MORA           TSTM      61  55  82 SE5       29.84F
CAMBRIDGE      RAIN      66  57  72 SE13G20   29.80F
RUSH CITY      CLOUDY    66  60  79 S8        29.83F
MOOSE LAKE     CLOUDY    64  59  82 SW3       29.84R
HINCKLEY       CLOUDY    64  61  88 S8        29.84S
CLOQUET        CLOUDY    61  57  88 CALM      29.86R
MCGREGOR       CLOUDY    64  61  88 S7        29.85R
$$
MNZ071>073-080-081-089-090-097-098-251200-
   Southwest Minnesota

CITY           SKY/WX    TMP DP  RH WIND       PRES   REMARKS
MONTEVIDEO     CLOUDY    64  64 100 S10       29.72F
GRANITE FALLS  CLOUDY    64  62  94 SE10      29.74F
CANBY          CLOUDY    65  63  92 SW6       29.76S
MARSHALL       CLOUDY    66  61  82 S20G29    29.73F
REDWOOD FALLS  CLOUDY    65  64  97 SE8       29.76F
OLIVIA         CLOUDY    63  61  94 SE10      29.75F
PIPESTONE      MOCLDY    64  61  88 S20       29.81F
WINDOM         TSTM      66  63  88 W10       29.93R
WORTHINGTON    CLOUDY    66  61  82 S17G23    29.85S
JACKSON        CLOUDY    64  61  88 S15G21    29.86F
TRACY          CLOUDY    66  63  90 S24G31    29.74F
SLAYTON        CLOUDY    63  63  98 SE16      29.83F
$$
MNZ065>067-074>077-082>085-091>093-251200-
   South Central Minnesota

CITY           SKY/WX    TMP DP  RH WIND       PRES   REMARKS
MANKATO        CLOUDY    64  59  82 SE14      29.80F
NEW ULM        CLOUDY    64  64 100 S12       29.79F
ST JAMES       CLOUDY    63 N/A N/A S7        29.83R
FAIRMONT       CLOUDY    66  61  82 SE13      29.83F
GLENCOE        CLOUDY    65  61  88 SE5G17    29.80R
FARIBAULT      TSTM      66  61  82 SE9       29.87F
OWATONNA       RAIN      64  61  88 SE15      29.87F
WASECA         LGT RAIN  61  55  82 SE13G18   29.83F
ALBERT LEA     LGT RAIN  64  63  94 SE14      29.88F
$$
MNZ078>079-086>088-094>096-251200-
   Southeast Minnesota

CITY           SKY/WX    TMP DP  RH WIND       PRES   REMARKS
ROCHESTER      RAIN      63  59  87 S10       29.96S FOG
RED WING       TSTM      70  59  68 SW10G20   29.90S
STANTON        TSTM      64  61  89 SE9       29.87F
DODGE CENTER   TSTM      63  61  94 S14G20    29.93F
WINONA         CLOUDY    70  59  68 SW9       29.94R
AUSTIN         RAIN      63  61  94 S7        29.94R
PRESTON        TSTM      63  62  96 S13G23    29.96R
$$
ABBREVIATIONS USED IN REMARKS
   TC - TEMPERATURES IN CELSIUS
  WCI - WIND CHILL INDEX
   HX - HEAT INDEX
  VSB - VISIBILITY
$$



USA.gov is the U.S. government's official web portal to all federal, state and local government web resources and services.